Hourly Data Report for October 13, 2015

All times are specified in Local Standard Time (LST). Add 1 hour to adjust for Daylight Saving Time where and when it is observed.

ST LEONARD CS
NEW BRUNSWICK

47°09'28.050" N
67°49'55.014" W
245.00 m
810I001
71019
WIY

Download Data

Hourly Data (October 2015)
Hourly Data Report for October 13, 2015
Temp Definition
°C
Dew Point Temp Definition
°C
Rel Hum Definition
%
Wind Dir Definition
10's deg

Wind Spd Definition
km/h
Visibility Definition
km
Stn Press Definition
kPa
Hmdx Definition


Wind Chill Definition


Weather Definition


TIME
00:00 11.4 9.4 88 14 11   97.77     LegendNANA
01:00 10.9 9.1 89 14 11   97.73     LegendNANA
02:00 10.4 8.7 89 13 14   97.72     LegendNANA
03:00 10.6 8.7 88 14 12   97.66     LegendNANA
04:00 9.2 8.0 92 14 7   97.64     LegendNANA
05:00 8.8 7.8 93 14 12   97.62     LegendNANA
06:00 9.3 8.6 96 15 18   97.61     LegendNANA
07:00 9.4 8.8 96 16 15   97.57     LegendNANA
08:00 9.2 8.5 96 13 12   97.56     LegendNANA
09:00 9.8 8.9 94 12 12   97.54     LegendNANA
10:00 11.0 9.9 93 14 10   97.46     LegendNANA
11:00 12.8 10.5 86 17 19   97.41     LegendNANA
12:00 13.5 9.8 79 15 22   97.31     LegendNANA
13:00 14.9 9.5 70 17 16   97.22     LegendNANA
14:00 13.5 10.3 81 15 9   97.11     LegendNANA
15:00 13.8 10.5 81 15 11   97.06     LegendNANA
16:00 12.3 9.8 85 18 16   97.01     LegendNANA
17:00 11.7 10.0 89 15 7   96.91     LegendNANA
18:00 11.6 10.5 93 12 7   96.84     LegendNANA
19:00 12.1 11.2 95 14 8   96.80     LegendNANA
20:00 12.4 11.6 95 16 9   96.75     LegendNANA
21:00 12.4 11.7 96 15 8   96.71     LegendNANA
22:00 13.1 12.6 97 17 11   96.68     LegendNANA
23:00 13.3 12.9 97 20 11   96.66     LegendNANA

Notes on Data Quality.

Legend

  • E = Estimated
  • M = Missing
  • NA = Not Available
  • ‡ = Partner data that is not subject to review by the National Climate Archives
Date modified: